GFSGL_sfc_temp_096.txt.gz
Temp
60 60 59 59 59 59 59 59 58 59 59 58 59 58 59 60 60 59 60 60 58 57 57 57 58 58 57 56 55 55 55 54 53 56 53 53 52 52 53 53 54 53 53
60 61 60 60 60 59 59 59 60 59 59 60 59 59 58 59 58 58 59 60 59 57 58 57 57 57 55 57 57 56 55 56 55 53 53 50 49 50 49 50 51 53 52
60 60 60 59 59 59 59 60 60 59 58 59 60 59 59 59 58 59 61 60 59 59 59 57 58 56 56 57 56 56 56 56 54 55 55 47 44 44 44 45 45 46 48
60 60 59 59 60 59 60 60 60 59 58 58 59 59 60 60 61 60 60 59 59 60 59 58 58 57 57 57 56 57 57 55 54 54 52 42 42 42 42 42 41 42 42
59 60 61 61 61 61 60 60 60 59 58 59 59 59 59 60 61 60 61 60 60 59 57 56 55 50 43 46 54 56 54 53 53 46 40 38 37 37 37 38 36 37 39
59 59 61 61 61 60 60 59 59 58 59 58 58 58 57 60 52 48 54 57 56 56 55 43 41 40 38 38 39 38 39 46 43 39 37 35 35 35 35 34 34 34 34
59 59 59 60 60 61 61 60 59 59 59 57 57 57 57 58 48 48 46 58 56 55 49 42 39 38 37 37 36 36 35 35 34 38 35 33 32 33 34 33 32 32 32
60 59 60 59 59 60 60 61 60 60 59 58 57 58 58 57 46 46 44 50 41 40 41 40 38 37 36 36 35 33 33 33 34 34 34 32 32 34 35 35 32 32 32
61 61 60 59 59 59 58 59 60 59 59 59 59 58 58 42 39 40 42 38 35 34 35 36 35 35 35 37 33 30 30 30 34 35 35 36 35 35 34 31 29 28 26
49 51 57 61 60 59 59 58 58 58 55 46 42 40 39 38 38 39 40 35 33 32 32 32 33 33 32 33 32 31 29 29 31 31 30 31 32 32 31 29 28 25 25
46 46 48 50 54 57 58 52 45 42 41 39 37 36 35 35 36 37 38 36 33 31 31 30 31 32 32 32 32 30 29 30 29 28 27 28 29 29 28 28 28 26 23
41 39 39 41 45 45 43 41 40 39 35 33 32 31 32 33 34 34 34 33 33 30 28 29 31 32 32 31 30 30 30 29 28 26 24 24 25 25 26 26 26 25 26
36 35 35 36 37 39 40 38 36 36 34 32 31 29 29 31 32 32 33 32 31 29 30 31 31 31 30 28 29 29 27 26 24 22 22 22 23 25 25 24 25 25 25
33 32 32 31 31 33 34 35 34 32 32 31 30 29 28 29 29 30 30 30 31 30 29 28 28 28 27 27 25 25 24 24 23 22 21 22 23 22 19 21 18 19 18
32 32 31 30 30 30 30 31 31 31 32 30 29 29 28 27 28 30 30 29 28 28 28 28 26 25 24 23 22 23 23 23 20 20 19 18 18 18 17 18 17 16 13
29 28 29 30 29 30 29 28 32 31 32 32 32 31 31 32 32 32 31 31 30 29 26 23 22 21 21 21 19 19 19 19 19 18 17 16 15 14 15 15 15 11 10
27 27 27 27 27 27 27 27 25 28 31 31 31 31 32 31 31 30 29 28 27 25 20 19 18 18 18 18 18 17 15 17 17 15 14 13 13 13 12 12 11 11 9
26 26 25 24 25 25 25 24 24 23 22 23 28 28 28 28 28 27 26 24 19 20 19 17 16 16 16 16 16 15 14 14 13 12 9 8 6 9 8 8 8 1 7
26 25 24 24 24 24 23 23 22 21 20 19 19 20 22 25 24 23 23 18 16 16 16 15 15 14 13 13 11 9 4 3 3 2 4 4 -5 3 1 5 5 4 4
25 25 24 22 21 21 21 21 21 20 19 18 17 16 17 17 14 13 14 13 13 13 13 13 12 12 10 9 6 3 4 4 1 3 -9 -10 -13 -4 -2 -0 -2 -1 5
24 23 23 21 20 20 19 19 19 18 17 16 14 15 16 14 11 11 11 10 10 10 9 9 8 7 5 2 5 1 -0 -7 -2 -2 -2 -2 -14 -5 -0 -1 -2 2 5
23 23 22 21 20 19 18 18 17 16 15 13 13 12 12 10 9 8 8 6 6 7 6 5 6 6 4 3 -1 -6 -6 -10 -9 -8 -5 -6 -4 -5 -5 -5 -6 -5 1
20 19 19 19 19 17 16 16 14 13 12 12 12 10 9 6 5 5 4 1 3 0 -1 -1 -2 2 0 -5 -2 -0 -2 -3 -5 -10 -12 -12 -7 -7 -12 -9 -5 -4 -4
19 18 17 16 15 14 13 11 11 9 8 7 7 6 5 1 -1 -1 -4 -6 -4 -6 -6 -4 0 1 1 -8 -10 -7 -2 -7 -6 -6 -11 -13 -9 -4 -8 -6 -4 -6 -3
17 15 14 13 13 11 11 10 8 7 6 5 5 6 4 2 -1 -8 -11 -10 -6 -6 -5 -7 -7 -6 -7 -8 -5 -1 -4 -3 -10 -8 -11 -10 -10 -11 -9 -5 -5 -2 -2
14 14 13 12 10 9 8 7 6 5 3 4 2 -1 -1 -1 -4 -12 -11 -10 -10 -10 -9 -10 -8 -7 -7 -4 -0 -1 -6 -5 -8 -6 -10 -8 -10 -8 -8 -6 -5 -3 -2

GFSGL_sfc_temp_099.txt.gz
Temp
58 55 54 54 55 55 56 57 56 57 57 57 57 57 57 57 57 57 58 58 57 57 56 56 56 57 55 54 55 56 55 53 51 55 53 53 52 53 53 53 52 52 51
59 56 55 55 55 55 55 56 58 56 56 58 57 57 57 56 57 57 57 59 57 56 57 55 56 57 56 57 55 54 54 54 54 53 54 50 50 48 48 49 49 51 51
60 57 56 55 55 55 55 57 58 58 57 57 58 57 57 57 57 58 58 59 58 58 59 57 57 57 57 57 55 55 54 54 53 54 54 47 45 45 45 45 46 46 48
60 59 56 55 56 56 58 58 58 59 57 56 58 58 57 57 58 58 58 58 58 59 60 59 58 58 57 57 55 54 54 53 52 53 53 53 44 42 43 43 41 42 42
58 58 58 57 57 57 58 58 58 58 58 57 57 57 58 58 58 57 57 57 55 55 55 57 57 55 49 50 54 54 53 53 53 53 53 41 39 38 39 39 37 37 38
57 57 58 58 58 57 57 58 58 58 58 57 57 57 55 58 50 48 53 56 54 54 54 53 45 42 40 39 40 40 46 53 53 51 45 38 36 35 35 36 35 34 33
57 58 58 58 57 59 59 58 58 57 57 56 56 56 56 56 47 46 45 56 55 55 55 50 42 40 38 37 36 36 35 35 33 41 37 34 33 33 34 33 32 32 32
58 58 58 58 57 58 59 59 58 58 57 57 55 55 55 55 46 45 44 51 52 47 49 48 44 38 37 37 34 32 31 32 32 33 31 30 30 31 31 32 31 31 30
54 57 59 58 58 58 57 58 58 57 57 57 57 56 54 54 44 44 44 47 39 36 37 38 38 36 36 37 33 30 29 30 33 33 33 32 32 31 31 31 27 27 26
46 47 49 52 58 58 58 57 58 58 57 56 54 46 49 54 39 41 44 41 35 33 33 33 35 34 33 33 32 31 29 28 28 28 27 28 28 28 28 27 27 24 24
43 42 42 43 46 49 57 57 57 56 44 41 36 35 36 37 37 38 39 39 35 32 31 31 32 33 33 33 32 30 28 29 27 26 26 25 25 25 25 25 26 25 23
38 38 37 38 39 42 41 41 40 40 36 33 33 33 33 33 34 35 35 34 34 31 30 31 31 33 32 32 31 30 30 27 26 24 23 22 22 21 23 24 24 25 27
34 33 33 35 35 36 36 35 35 35 33 32 32 31 31 31 31 33 32 32 32 30 30 31 31 31 30 28 28 27 26 24 23 21 20 20 21 22 23 22 23 24 24
31 31 32 31 31 33 34 34 33 32 30 30 29 28 28 29 29 30 31 31 31 30 29 27 26 25 24 24 23 24 23 23 21 20 19 20 21 19 19 20 18 18 17
31 31 30 31 30 30 30 31 31 32 33 30 29 29 28 27 29 30 30 29 28 28 27 25 24 22 21 21 21 21 22 21 19 19 18 17 17 17 16 17 16 15 12
29 29 29 30 30 30 30 29 31 32 32 32 32 31 31 31 31 31 31 30 29 28 24 22 20 20 19 19 18 18 19 18 18 17 16 16 15 14 14 14 13 12 9
23 24 26 27 27 27 27 27 24 27 30 30 31 31 31 30 30 29 28 27 26 25 19 18 17 17 17 17 17 16 15 16 17 15 13 13 13 12 11 10 9 9 8
23 23 24 24 24 23 22 21 21 20 19 20 26 27 28 28 27 27 26 23 19 19 18 17 16 16 16 15 15 14 14 13 12 11 8 6 6 8 7 7 8 1 5
24 22 22 22 22 22 22 21 20 19 18 17 18 18 21 24 23 23 22 17 15 15 15 14 13 13 12 12 10 8 7 5 4 2 3 3 -5 3 2 4 3 1 3
23 22 21 20 20 20 20 19 19 18 16 15 15 15 16 16 13 12 13 13 13 13 13 12 11 10 10 8 5 6 5 3 2 -0 -11 -11 -12 -3 -1 -4 -5 -4 3
22 21 21 20 19 19 18 17 17 15 14 13 12 13 13 11 9 9 9 8 9 9 8 8 7 6 5 3 4 0 -1 -8 -2 -3 -3 -2 -14 -6 -0 -1 -2 1 3
21 21 20 19 19 17 17 17 15 14 13 11 10 10 10 9 8 6 6 4 3 5 6 5 4 4 3 3 -1 -8 -8 -11 -10 -6 -7 -6 -4 -6 -5 -6 -7 -9 -3
19 18 18 17 17 16 14 14 13 12 10 9 9 8 7 5 4 3 1 -1 1 -1 1 -0 -0 1 -1 -4 -4 -2 -4 -4 -5 -9 -11 -12 -6 -6 -13 -10 -7 -8 -9
17 16 15 14 13 12 11 10 10 9 9 7 6 5 3 2 0 -2 -5 -5 -2 -4 -6 -5 -2 -2 -3 -10 -10 -6 -0 -7 -7 -8 -14 -14 -10 -5 -10 -8 -7 -9 -8
14 13 11 11 10 9 8 8 8 7 6 6 5 3 1 1 -2 -7 -6 -6 -3 -8 -7 -10 -10 -6 -8 -8 -5 -3 -8 -7 -12 -9 -12 -12 -12 -12 -10 -8 -10 -7 -7
12 12 11 10 9 8 6 5 5 5 4 3 1 -1 -0 -1 -3 -9 -6 -6 -6 -8 -5 -7 -8 -9 -8 -5 -3 -3 -6 -6 -10 -9 -15 -10 -12 -11 -10 -11 -9 -9 -4

GFSGL_sfc_temp_105.txt.gz
Temp
59 61 56 58 61 61 60 60 61 61 60 59 58 57 57 57 56 55 55 56 56 56 56 55 56 58 59 60 56 55 56 59 58 59 62 66 64 65 67 65 64 64 64
59 58 56 58 60 60 60 60 61 59 59 59 58 57 57 57 57 56 55 56 56 55 55 56 57 56 57 57 56 57 57 62 62 60 61 56 59 63 65 63 60 60 59
59 56 55 56 58 59 59 60 61 61 57 59 58 57 57 57 57 57 57 57 57 57 56 56 57 57 56 56 56 56 56 57 58 61 60 58 59 57 58 58 56 51 48
58 57 54 55 58 59 60 60 60 61 60 58 58 57 57 57 57 58 58 57 58 58 57 57 58 57 57 57 56 56 56 55 55 55 56 56 58 60 56 56 49 46 43
58 57 55 56 57 59 59 60 60 60 61 61 59 59 58 57 57 56 57 57 56 56 56 57 58 56 52 55 57 56 55 54 54 53 52 53 53 46 49 51 47 38 35
58 57 57 56 57 58 59 59 59 60 61 60 59 59 59 60 47 46 53 56 56 55 55 56 57 49 49 45 41 40 49 55 54 53 52 51 53 49 42 42 37 35 33
57 57 57 56 56 57 59 59 59 59 60 60 59 58 57 59 45 45 45 62 58 56 57 56 56 52 46 42 36 36 35 35 32 44 50 45 39 40 38 35 35 33 29
57 58 58 57 56 57 58 58 58 59 57 58 58 57 56 56 44 44 43 60 61 61 61 61 60 56 47 42 38 34 33 34 34 35 33 32 32 33 35 34 31 27 27
44 45 47 50 54 57 55 56 58 58 57 56 57 56 55 55 44 43 44 53 55 55 57 60 60 60 41 39 36 32 31 31 33 33 33 32 32 32 34 34 31 30 26
39 40 42 43 45 45 46 53 56 57 56 56 47 39 37 45 37 40 44 51 48 44 36 35 35 44 36 36 36 32 28 27 26 26 26 26 27 27 27 27 29 27 26
38 38 38 39 40 40 42 42 43 52 40 36 34 34 34 35 37 38 39 46 38 33 33 32 33 33 34 34 33 30 27 26 25 24 23 23 23 23 24 25 27 29 24
36 35 35 36 37 38 38 38 38 37 35 33 32 31 32 33 35 36 37 36 35 33 32 32 32 32 31 30 29 29 28 26 24 22 21 20 20 21 23 24 25 25 26
34 33 33 33 34 35 34 34 34 34 32 31 31 30 29 31 32 33 34 33 33 31 31 31 31 30 29 28 27 26 24 23 21 19 18 19 20 22 23 23 24 25 25
33 32 32 31 31 32 33 32 32 32 32 31 30 29 29 29 28 28 28 28 28 27 25 24 24 24 24 23 23 23 22 22 21 19 18 19 20 20 20 21 21 22 22
33 32 31 31 31 30 30 30 30 31 31 29 29 29 27 26 27 28 29 29 28 27 28 27 25 24 22 22 21 20 21 21 20 20 19 19 18 18 18 20 21 21 21
31 31 30 31 31 30 29 28 31 31 32 32 32 30 29 30 30 30 30 30 29 29 28 25 24 23 22 21 21 20 21 20 20 20 19 19 19 19 18 19 20 20 19
28 29 28 27 28 27 27 27 24 27 30 31 31 31 31 30 30 29 29 28 28 28 26 24 23 23 22 23 22 21 18 19 20 19 19 17 17 17 18 17 18 19 19
25 25 26 25 25 25 24 23 23 22 21 22 27 28 28 28 28 27 27 28 25 25 25 23 22 22 22 22 21 20 19 17 17 17 16 16 16 16 15 15 15 15 18
24 24 25 25 24 24 24 23 23 23 22 22 23 21 22 23 23 23 24 23 21 21 21 21 21 21 20 19 18 17 16 16 15 14 14 14 14 16 14 15 15 11 15
24 23 25 26 25 24 24 23 22 21 20 19 18 19 21 22 18 17 19 19 19 19 19 19 19 19 18 17 16 15 15 14 14 14 12 12 13 15 13 13 13 14 15
25 24 23 24 24 23 22 20 19 18 17 16 15 14 15 17 16 16 16 16 17 17 16 17 17 16 16 16 17 15 14 14 13 13 13 12 11 12 13 14 14 14 14
24 23 23 22 22 20 20 19 18 17 16 15 14 12 13 15 15 14 13 13 14 15 15 15 15 15 15 15 14 13 12 11 12 12 11 11 12 12 12 12 12 12 12
22 21 21 20 19 17 17 17 16 15 14 14 14 13 13 12 12 12 11 11 12 11 13 13 12 11 11 11 13 14 13 11 11 11 10 11 11 11 10 11 10 11 10
20 19 18 17 17 17 15 14 13 12 12 11 11 10 10 10 10 9 9 10 10 10 10 9 10 10 9 10 12 13 11 11 11 9 8 8 10 10 10 9 10 7 8
18 17 16 16 15 14 14 13 12 12 11 10 10 9 9 9 8 8 8 8 7 8 6 7 8 8 7 6 7 7 5 4 6 4 9 6 5 4 5 8 6 8 7
16 15 15 15 14 13 13 12 11 11 10 10 9 9 8 7 7 7 7 6 6 6 6 6 6 5 6 8 7 3 2 2 4 -0 5 8 6 7 8 6 5 7 7

GFSGL_sfc_temp_108.txt.gz
Temp
61 59 61 67 70 70 68 64 63 66 67 66 66 60 58 57 57 57 56 56 56 57 57 57 57 57 60 59 62 67 64 68 63 65 68 68 63 68 70 70 69 71 64
61 60 62 65 68 66 65 63 63 64 66 66 63 59 57 57 57 56 56 56 56 56 57 56 55 56 58 57 63 60 66 67 57 55 61 62 60 60 68 62 63 64 63
61 59 60 60 64 63 64 64 64 64 66 65 64 59 57 57 56 56 56 56 56 57 57 57 57 55 55 56 57 61 63 60 57 56 56 59 64 63 56 57 58 55 49
59 59 58 58 62 63 64 63 64 63 63 62 62 63 61 59 59 58 57 56 55 56 57 57 57 56 57 56 56 57 59 56 55 55 55 55 56 57 56 54 48 47 44
57 57 56 58 62 64 64 63 64 63 62 64 62 62 61 60 59 58 57 57 56 57 57 57 58 56 52 54 56 56 56 56 55 54 53 55 55 51 51 55 50 39 36
57 56 57 58 60 61 63 63 62 62 63 62 60 59 59 60 46 46 53 56 57 57 57 57 57 50 49 45 45 43 48 54 53 52 53 52 53 51 48 47 39 36 34
56 57 58 60 59 60 62 62 61 61 63 62 63 61 59 59 44 45 45 59 55 56 57 56 54 52 49 50 39 37 36 35 35 50 52 52 48 46 43 40 37 35 31
53 55 57 57 59 61 61 61 62 63 62 63 62 61 61 60 43 44 43 59 55 56 56 55 55 53 51 45 41 36 34 34 35 36 35 33 34 36 39 39 35 28 28
43 44 45 49 52 56 57 59 61 61 62 63 63 61 59 57 41 42 43 55 60 59 61 61 60 57 47 41 39 33 31 30 33 33 32 32 32 32 35 34 30 30 25
39 39 42 44 45 44 45 47 54 58 57 55 43 41 39 45 37 40 43 51 50 45 39 39 36 46 39 37 39 33 28 27 27 27 26 27 28 28 28 29 31 26 24
37 38 38 39 40 40 41 41 43 45 39 35 34 34 35 35 37 38 39 49 40 34 33 33 33 34 34 35 34 30 26 25 25 24 24 24 24 24 25 25 26 28 25
35 36 36 37 37 39 38 37 38 36 34 33 32 32 32 33 34 36 36 36 36 34 32 32 32 33 32 31 29 29 28 25 24 23 22 22 22 22 24 24 25 25 27
36 34 34 35 36 36 36 36 35 35 33 31 31 29 28 29 30 32 33 33 32 31 31 30 30 30 29 28 28 27 25 25 24 23 21 21 23 24 25 24 25 25 26
35 34 33 32 32 33 33 33 33 32 31 30 29 27 27 27 27 28 28 27 28 26 26 25 25 26 26 26 26 26 27 27 26 23 23 24 25 24 23 25 23 23 22
37 36 35 33 32 30 30 30 30 30 31 29 29 29 27 26 28 29 30 29 28 28 30 30 29 29 29 28 27 27 28 29 27 27 26 26 25 25 23 24 25 26 25
36 34 34 33 32 32 30 29 31 31 32 32 32 31 30 30 30 31 31 31 32 32 33 31 29 29 29 28 28 28 29 28 29 28 27 27 26 25 25 27 28 27 25
31 32 32 32 32 31 31 30 27 28 30 30 31 31 31 30 30 31 31 32 33 33 30 29 28 28 28 29 28 28 26 27 27 28 27 26 25 25 25 25 26 26 25
30 30 30 30 30 30 29 29 30 28 26 25 27 28 28 29 29 30 32 33 31 31 30 28 28 28 29 28 27 27 27 26 26 26 25 25 25 26 25 24 25 24 26
30 29 29 29 30 29 30 30 29 29 28 27 28 27 27 27 28 28 30 30 28 28 28 28 28 27 27 26 25 24 24 23 23 23 23 23 24 25 23 24 21 18 22
29 29 30 30 30 30 30 29 29 28 27 26 26 27 30 30 27 26 27 27 27 27 27 26 26 26 25 24 23 22 22 22 22 22 21 22 23 24 22 22 22 23 23
30 30 29 30 30 29 28 28 28 27 25 24 21 21 23 26 24 24 24 24 25 25 24 25 24 24 24 24 24 23 22 21 21 21 21 21 21 21 23 23 22 22 21
30 29 29 28 28 27 27 27 26 26 25 23 22 21 21 23 23 22 22 21 21 22 23 23 23 23 23 23 22 21 19 19 20 21 19 19 21 21 21 21 21 20 21
29 27 27 26 25 24 25 25 25 24 23 23 22 21 21 20 20 20 19 19 19 19 20 20 19 18 19 20 21 22 20 18 18 19 19 19 20 20 20 20 19 18 18
27 26 25 24 24 24 23 21 20 20 21 20 20 19 19 18 17 16 17 17 18 17 17 16 16 16 16 18 19 19 18 18 18 16 14 16 18 17 18 17 18 15 16
25 25 24 23 23 22 21 21 20 20 19 19 18 18 18 17 17 16 15 14 14 14 13 14 15 14 12 11 12 12 9 8 11 7 16 14 13 10 13 14 14 15 14
24 23 23 23 22 21 21 19 19 19 18 18 18 17 16 16 16 15 14 13 12 12 13 12 11 10 8 14 11 7 6 6 8 5 9 14 13 14 15 14 12 13 14

GFSGL_sfc_temp_111.txt.gz
Temp
68 66 64 63 68 70 72 72 71 69 69 68 66 62 60 58 58 57 57 57 57 57 58 57 57 57 57 58 60 65 60 66 63 66 69 68 66 64 61 67 66 70 54
65 62 61 62 65 69 70 69 69 68 70 70 67 62 60 58 58 56 55 56 56 55 56 57 57 56 55 57 56 58 66 63 64 63 69 66 65 63 60 59 62 66 56
62 60 60 60 63 66 67 67 66 68 67 68 65 63 60 58 57 57 57 56 56 57 56 56 56 56 55 55 55 56 59 60 59 56 62 64 63 59 55 56 53 49 46
61 60 59 60 63 64 66 66 63 67 66 66 64 63 59 58 57 56 56 55 55 56 56 56 55 56 56 55 55 55 55 54 55 55 59 58 55 57 55 54 49 46 43
59 58 57 59 62 64 64 64 63 65 66 65 63 63 62 60 59 57 57 56 55 55 55 55 56 55 50 53 55 55 54 54 54 54 55 55 52 53 51 52 50 38 38
56 56 57 57 60 64 63 62 61 63 66 64 62 61 61 63 46 46 54 56 56 55 53 54 56 49 49 46 46 47 52 54 53 52 53 50 53 52 52 51 42 37 35
56 56 56 57 59 61 61 62 62 61 62 64 65 64 63 64 45 44 45 59 56 56 56 55 55 55 51 55 40 39 37 36 35 51 53 52 50 46 49 44 39 37 34
52 53 56 57 59 60 61 61 61 63 61 61 60 61 63 62 43 43 43 59 57 58 57 59 57 53 53 50 42 36 34 34 34 35 34 33 34 36 37 37 33 28 28
41 43 45 49 54 60 59 61 62 61 61 60 61 61 61 52 39 41 45 57 55 55 56 57 57 55 45 43 39 32 30 30 33 33 33 33 33 33 35 34 30 30 26
36 37 40 42 44 45 46 49 52 60 57 47 42 40 37 45 37 38 44 53 48 41 37 35 35 42 40 39 37 34 29 27 27 27 27 28 28 28 29 31 33 27 25
34 36 36 37 39 40 41 42 43 40 37 35 34 33 34 35 36 37 39 50 42 35 34 33 34 35 36 35 35 32 28 26 25 25 25 25 25 25 25 26 27 28 25
33 32 34 33 34 38 37 37 37 36 34 32 31 30 30 32 34 35 36 36 36 34 32 32 32 34 33 32 30 30 28 26 25 25 24 23 23 23 25 25 26 27 28
32 32 32 32 33 34 34 34 34 34 32 31 30 28 27 28 29 32 32 32 32 30 30 30 30 30 29 28 28 28 27 25 24 23 23 23 24 26 27 27 27 28 28
34 32 32 30 30 32 32 31 32 31 30 29 28 26 27 27 27 28 27 28 28 27 27 27 27 27 27 27 28 28 27 27 27 25 25 27 29 29 28 30 28 28 27
36 36 34 32 31 30 30 30 29 30 30 28 28 28 27 26 28 30 29 28 28 29 30 30 29 28 28 28 28 28 29 29 29 30 29 28 28 28 28 30 30 30 28
34 33 32 32 32 31 29 28 31 31 32 32 32 30 30 31 32 32 33 33 32 33 33 31 30 31 30 30 29 30 31 31 31 30 30 30 29 28 29 30 31 30 28
31 32 32 31 31 31 30 29 26 27 30 30 31 31 31 32 33 33 34 34 34 34 31 30 30 30 30 30 30 30 28 30 31 30 30 29 28 28 29 28 29 29 28
31 31 31 31 31 31 31 30 30 28 26 26 29 30 30 31 32 34 34 35 32 32 31 30 30 30 30 30 30 29 29 29 29 29 28 28 28 28 27 27 27 27 28
31 31 31 31 31 31 31 31 31 30 29 28 29 29 30 30 31 32 33 32 30 30 30 30 30 30 29 29 28 27 26 26 26 26 26 26 27 27 26 25 22 20 21
32 30 32 32 32 31 31 30 30 28 27 26 26 29 32 31 28 28 30 29 29 29 29 28 28 28 27 27 26 25 26 25 25 25 25 25 26 26 24 24 24 25 25
31 31 30 31 31 31 30 29 29 27 25 24 23 26 28 28 27 27 27 27 27 27 27 27 27 27 27 27 27 25 25 24 24 24 24 24 24 23 24 24 24 24 23
31 30 29 28 29 29 29 29 28 27 26 25 24 25 26 26 25 24 24 23 24 25 26 25 25 25 25 25 25 24 23 22 23 23 21 22 23 22 23 22 22 22 22
30 29 28 28 28 27 28 28 27 27 26 26 26 25 25 23 23 23 22 21 22 21 23 23 22 21 22 22 24 24 22 20 20 21 21 21 22 22 21 21 20 19 20
29 28 27 26 27 26 25 24 24 24 25 24 23 23 22 21 20 19 19 20 20 20 19 17 18 18 19 21 21 21 18 17 20 17 17 17 19 19 19 19 19 18 17
27 26 26 26 26 25 25 25 24 24 23 23 22 22 22 21 20 19 18 17 17 17 16 17 17 15 14 13 13 11 9 9 9 10 17 17 17 14 15 15 16 16 17
28 27 27 26 25 25 24 23 23 22 21 21 21 20 20 19 19 18 16 16 15 15 15 14 14 13 16 15 11 8 7 7 8 6 9 14 16 16 17 16 16 15 16

GFSGL_sfc_temp_114.txt.gz
Temp
57 60 66 65 66 66 66 66 67 67 66 64 62 61 60 59 59 58 58 57 57 57 58 57 57 57 57 57 57 56 56 58 55 56 58 60 60 58 59 60 60 53 48
52 62 64 63 64 65 64 65 65 66 66 64 62 60 59 58 58 57 56 57 57 56 57 57 56 57 56 57 56 55 55 57 57 55 56 57 58 58 57 57 58 53 46
51 57 60 60 62 61 62 64 65 65 65 65 63 61 59 58 57 57 57 56 56 57 57 56 57 56 55 56 56 54 54 56 56 56 55 56 56 55 55 54 47 43 44
49 56 58 58 60 61 61 63 64 64 65 65 62 60 58 57 57 56 56 55 56 56 56 57 57 56 55 55 55 55 54 53 53 53 53 53 53 54 54 51 46 43 41
45 51 57 59 60 61 60 62 63 62 63 63 62 60 59 58 57 56 56 55 55 54 55 55 56 55 51 53 54 53 54 53 52 51 51 51 51 50 50 51 47 40 37
45 49 58 58 58 58 59 60 61 60 61 62 62 59 58 59 46 46 52 55 54 54 53 53 53 48 48 46 46 47 51 53 51 51 51 49 51 50 50 49 40 37 35
46 54 57 57 57 58 59 59 59 59 60 60 60 60 58 59 45 45 46 56 54 53 53 53 52 52 49 51 41 38 37 37 38 52 51 49 48 48 48 46 41 38 35
39 43 51 56 56 58 58 58 58 59 58 59 59 59 58 53 42 43 43 56 54 54 54 54 53 51 51 48 40 35 33 33 34 35 35 33 34 36 37 36 34 29 29
35 37 40 44 55 56 57 57 58 58 57 55 52 49 48 41 38 40 45 53 53 52 51 44 51 52 44 42 38 33 31 30 34 34 33 33 33 34 35 35 31 31 27
33 34 37 39 43 47 49 51 51 52 46 41 37 37 36 39 37 39 43 52 44 38 36 36 35 42 39 38 38 34 29 28 28 27 27 27 28 29 29 30 33 30 26
32 33 35 35 37 39 40 42 42 39 36 33 32 32 33 34 35 38 40 47 38 34 33 33 33 35 36 36 36 34 29 27 26 26 26 26 26 26 26 27 27 29 25
32 32 32 33 33 36 36 36 37 35 33 31 29 28 29 31 34 35 36 36 35 32 31 31 32 33 33 32 31 30 29 27 27 25 24 23 23 23 24 24 25 26 27
31 30 30 31 32 32 32 33 32 32 31 29 28 27 26 28 28 32 32 32 31 29 30 30 31 31 30 29 29 29 27 26 25 23 22 22 23 24 25 25 26 27 28
31 30 29 29 29 31 31 31 30 30 29 28 28 26 26 27 27 28 28 28 29 28 27 28 28 28 27 27 27 28 27 26 25 24 24 24 26 26 25 25 24 24 23
31 32 30 29 28 28 29 29 29 29 29 28 28 28 27 26 28 30 29 29 29 29 29 29 28 28 27 27 26 27 27 27 26 25 25 25 24 24 23 23 24 22 20
31 31 31 30 29 27 27 27 31 31 32 32 32 31 31 32 33 33 33 33 34 33 31 28 27 27 27 27 26 26 27 27 26 26 24 25 23 22 22 23 23 21 19
30 30 31 30 30 29 28 26 24 28 31 31 32 32 33 33 34 34 34 34 34 32 28 27 27 26 26 26 25 24 23 24 26 25 23 21 20 22 21 21 21 21 20
30 30 30 30 30 30 29 27 26 24 24 25 30 31 32 33 34 34 34 32 28 29 28 26 25 25 25 24 24 24 24 23 23 23 20 19 17 19 18 20 20 15 17
31 30 30 30 30 30 30 28 28 27 27 26 28 28 29 32 32 32 32 27 25 25 25 24 24 24 22 22 20 20 20 20 19 18 18 18 15 17 15 16 14 13 13
31 30 30 30 29 29 28 26 25 24 23 23 24 26 28 27 24 24 25 24 24 24 23 23 23 22 21 20 17 15 16 17 17 17 13 13 13 14 12 14 14 13 17
30 30 29 29 28 28 27 25 24 23 22 21 22 24 24 23 21 21 21 22 22 22 21 22 21 20 20 20 20 18 17 15 15 15 14 13 12 11 15 14 13 14 15
29 28 27 27 27 26 26 26 25 24 23 22 22 22 22 21 20 19 19 18 19 20 20 19 19 19 19 19 17 14 13 14 13 11 11 11 13 11 12 11 11 10 13
28 27 27 26 26 26 25 25 24 23 22 22 21 20 19 19 18 17 16 16 16 15 17 17 16 16 16 16 17 16 14 11 9 11 11 9 12 10 8 11 9 8 8
27 26 25 25 24 23 22 21 21 21 21 20 19 18 17 16 15 14 15 15 15 14 12 11 10 9 12 11 12 9 8 8 9 8 6 6 12 10 9 9 9 8 6
26 25 25 24 24 23 22 22 21 21 20 19 18 17 17 16 15 14 13 13 12 11 10 11 9 8 7 6 4 4 1 2 -0 1 4 7 6 4 4 5 3 6 4
24 24 24 23 23 22 21 20 19 19 18 17 17 17 16 15 14 13 13 11 9 10 10 7 7 9 8 5 4 1 -1 -2 -3 -2 -2 4 5 5 7 4 5 4 6

GFSGL_sfc_temp_117.txt.gz
Temp
51 50 50 50 56 63 61 61 63 65 65 63 62 61 60 59 59 58 58 58 57 57 57 57 57 58 57 57 57 56 55 55 53 56 58 58 57 58 57 56 53 50 48
48 48 49 50 61 61 61 61 64 65 63 62 60 60 59 59 59 58 57 57 56 56 56 57 57 57 57 57 57 56 55 54 54 55 56 56 56 56 56 54 52 49 47
45 45 47 49 59 60 60 60 63 63 62 62 60 60 59 58 58 58 58 57 57 57 57 56 57 57 56 56 56 55 55 55 54 54 53 54 54 56 52 48 44 43 44
44 43 45 47 58 59 60 59 62 63 61 60 60 60 58 57 57 57 57 56 56 57 57 58 57 57 57 56 56 56 54 54 53 52 52 52 52 53 53 48 44 42 40
42 43 44 48 57 59 59 59 61 62 62 60 60 59 58 57 57 56 56 55 55 55 56 56 57 56 51 54 56 56 54 54 53 52 50 50 50 50 50 50 46 39 37
41 41 44 50 57 58 58 59 59 59 61 59 58 57 56 58 47 46 52 55 54 54 53 53 54 49 48 45 46 47 53 54 52 51 50 48 49 50 49 49 40 38 36
40 41 42 43 57 58 59 59 58 58 59 58 57 57 56 57 44 45 45 55 54 53 53 52 51 51 49 50 39 38 37 38 41 52 50 49 48 49 49 46 42 38 36
37 38 39 40 46 57 58 58 57 58 57 57 56 57 55 49 43 43 43 54 53 53 53 53 52 50 50 44 39 35 34 34 35 37 38 34 34 36 38 38 36 30 30
34 35 36 38 40 54 56 56 57 57 56 52 52 49 46 41 39 42 46 53 51 49 47 44 52 51 42 41 37 33 31 31 34 35 34 34 34 34 35 36 32 33 28
32 33 35 36 37 39 51 55 55 49 43 41 36 36 37 38 37 40 47 50 41 37 35 35 35 42 38 38 38 34 30 28 28 28 28 28 29 30 30 31 34 32 27
32 32 33 34 36 35 39 45 43 38 35 33 32 32 33 34 36 40 42 45 38 34 33 32 33 35 36 37 37 35 31 28 27 27 26 26 26 26 26 27 28 31 27
31 30 30 32 33 34 34 35 36 35 32 30 29 28 29 32 34 35 36 36 35 32 30 31 32 34 33 32 31 31 30 28 27 25 24 23 23 23 24 25 26 27 28
30 28 28 29 31 32 32 32 31 32 31 29 28 26 26 28 30 33 33 32 32 30 30 31 32 31 31 30 30 29 28 27 25 23 22 22 23 24 25 25 27 28 28
30 28 28 27 28 30 31 31 30 30 29 28 27 26 26 27 27 28 28 29 30 28 28 28 28 28 28 27 27 27 27 26 25 23 23 24 25 26 25 26 23 23 22
31 30 28 27 27 28 29 29 29 30 30 28 28 28 27 26 28 30 30 29 29 29 29 29 27 27 26 26 26 26 26 26 25 25 24 24 25 25 23 23 23 23 20
30 30 29 29 27 27 27 27 31 31 32 32 32 31 32 32 33 33 33 32 32 31 29 26 25 25 25 25 25 25 26 26 26 25 25 25 23 22 22 23 23 21 20
29 29 29 28 27 26 26 25 25 28 31 31 32 32 32 31 32 32 32 32 32 31 26 25 23 23 23 24 24 24 22 23 24 23 22 21 21 22 22 21 20 20 19
29 29 29 29 29 27 26 25 25 25 24 25 29 31 32 32 32 32 31 30 25 26 24 23 22 22 22 22 22 22 22 21 21 20 18 16 17 18 18 18 17 11 15
29 29 29 28 27 26 25 24 23 23 25 25 25 26 28 30 30 30 29 24 22 22 22 21 20 20 20 20 19 18 18 14 16 15 15 16 11 16 13 14 14 11 15
28 28 28 27 26 25 24 23 22 22 22 22 22 22 23 23 21 21 22 21 21 21 22 21 21 20 18 17 14 14 16 15 15 15 10 9 7 12 11 11 11 11 14
26 26 26 26 25 24 23 22 21 20 20 19 19 20 20 19 18 18 18 18 18 18 17 18 17 17 17 17 17 15 13 12 12 10 11 11 8 9 12 11 11 11 13
25 25 25 24 25 23 23 23 21 20 20 18 18 18 18 16 15 14 14 14 14 15 15 15 15 15 14 13 13 12 10 7 7 6 8 9 10 9 7 7 8 8 9
24 23 23 22 22 22 22 21 20 19 17 16 16 16 15 14 13 12 11 10 10 10 10 9 10 11 10 7 7 7 7 5 3 3 5 5 7 6 2 4 3 3 1
22 20 21 18 19 19 18 18 18 17 16 15 14 13 12 11 10 9 9 10 10 8 7 7 7 6 5 3 3 4 4 -0 2 2 -0 0 3 5 2 3 4 -0 1
19 18 19 18 17 15 16 16 15 14 13 12 12 12 11 10 9 7 6 7 6 5 5 4 5 2 -0 -1 -1 -0 -3 -4 -3 -5 -1 -0 -3 -2 -1 -0 -3 1 -1
19 18 18 18 16 14 13 13 12 9 9 9 9 7 6 7 5 2 2 3 3 2 2 4 4 0 -0 -0 0 -3 -5 -5 -5 -5 -7 -0 -1 -2 -2 -4 -2 -4 -0

GFSGL_sfc_temp_120.txt.gz
Temp
45 46 46 46 48 51 51 54 62 63 63 63 63 62 61 60 60 59 58 58 57 57 57 57 57 58 57 57 57 57 55 54 52 53 56 57 56 56 53 53 52 50 48
44 44 44 45 47 49 52 57 62 62 62 63 64 62 61 60 59 58 57 58 57 56 56 56 56 57 57 57 56 56 56 55 53 53 54 55 55 55 54 51 50 50 47
43 44 43 44 45 47 49 60 61 61 61 63 62 60 59 59 58 58 58 57 57 57 57 56 57 56 56 56 56 55 55 55 54 53 52 53 53 53 47 46 44 44 44
41 42 41 42 45 46 50 57 60 61 61 61 61 60 59 59 59 58 57 57 56 57 57 57 57 57 57 56 56 56 55 54 54 53 52 51 52 53 51 45 42 41 40
40 41 41 42 44 46 50 56 59 60 61 61 60 59 59 58 58 57 57 56 56 56 56 56 57 56 52 54 56 55 55 54 53 52 50 50 50 51 50 48 43 38 37
37 38 40 41 43 45 47 57 58 59 61 60 58 57 57 57 46 47 53 56 55 55 54 55 56 50 49 45 47 47 53 54 53 52 52 50 49 50 50 49 39 37 36
36 37 39 39 40 43 44 57 58 58 58 58 58 57 56 56 45 45 45 55 54 54 53 53 52 52 50 51 39 39 38 39 42 55 52 52 48 49 49 46 42 39 38
34 34 36 37 38 41 43 50 58 57 57 57 56 56 56 51 43 43 43 54 53 53 53 53 52 50 48 44 39 35 34 35 36 39 45 37 38 41 46 45 40 32 32
32 32 33 34 36 39 39 41 58 57 56 56 55 54 50 44 41 42 47 52 51 48 47 44 51 50 40 41 38 33 31 31 35 35 35 35 35 36 37 38 34 34 29
31 31 32 33 34 35 37 38 56 53 45 42 38 39 39 40 39 41 48 48 41 37 35 36 35 45 38 38 38 35 31 29 29 29 29 29 30 31 31 33 36 35 28
31 30 30 32 32 34 36 36 41 39 37 35 33 33 34 35 37 40 43 45 38 34 33 32 33 37 37 37 38 36 32 29 27 27 27 27 27 27 27 29 30 33 30
31 28 28 30 31 32 33 32 34 35 33 32 31 30 31 33 35 37 38 37 36 33 30 32 33 34 34 33 32 31 30 29 28 26 25 24 24 24 25 26 27 28 29
29 28 27 29 30 30 31 31 30 32 31 31 30 27 27 29 31 33 33 33 32 30 31 32 32 32 31 30 31 30 29 28 26 24 22 22 23 24 25 25 27 28 28
29 28 28 27 28 29 30 30 30 29 29 29 28 27 27 28 28 29 30 30 30 29 28 28 28 28 27 27 27 27 27 27 26 24 23 24 25 25 24 26 24 25 24
30 29 28 27 27 28 29 30 30 30 30 29 29 29 28 27 29 30 30 29 29 29 29 29 27 27 25 25 25 26 26 26 25 25 24 24 25 25 24 25 24 23 21
30 29 27 27 27 26 27 28 30 31 32 32 32 31 31 32 32 32 32 32 31 30 27 25 24 24 24 24 24 24 25 24 24 24 25 25 24 24 22 23 23 21 20
28 28 29 28 27 26 26 25 24 27 30 30 31 31 31 30 30 30 30 29 29 28 24 23 22 22 23 23 23 23 22 23 25 24 23 21 22 22 22 21 20 21 19
28 28 27 25 24 24 23 24 25 23 22 23 27 28 29 29 29 29 28 27 23 24 23 21 21 22 22 22 22 22 22 21 21 21 20 20 19 19 18 17 16 13 17
28 27 26 25 24 24 23 23 23 23 22 22 22 23 24 27 27 27 27 23 21 21 21 20 21 21 21 20 19 19 18 17 17 16 16 15 12 16 14 14 14 13 15
25 25 25 24 23 22 22 21 21 21 20 19 18 18 21 21 18 18 20 20 20 20 20 20 20 19 18 18 17 17 16 16 15 14 10 11 10 13 11 10 11 13 14
23 23 23 24 23 22 21 21 20 19 18 17 16 17 17 16 15 15 15 15 16 17 17 17 16 17 17 16 16 14 12 11 12 12 12 11 10 10 11 11 11 12 12
23 23 23 22 22 21 21 21 20 19 18 16 15 15 15 14 13 12 12 11 11 12 14 13 12 11 10 11 12 9 8 7 7 9 9 9 9 7 8 8 8 7 9
21 20 21 20 20 19 19 18 16 16 15 14 14 13 12 11 11 10 9 8 9 8 9 10 8 7 6 5 6 7 6 3 2 1 6 5 7 5 3 3 3 1 0
20 19 20 18 17 16 15 15 14 14 13 12 11 10 9 9 8 7 7 6 6 5 5 4 4 4 3 1 2 3 1 -3 1 -0 -1 2 4 5 2 2 1 -4 -4
19 18 17 14 14 12 13 13 12 11 11 10 9 8 8 7 7 5 4 3 4 3 2 2 1 -1 -2 -4 -3 -2 -5 -4 -5 -6 -2 0 0 -1 -2 -3 -6 -2 -5
17 16 15 14 13 12 9 9 8 9 8 7 4 2 1 2 2 -1 -0 2 3 3 2 -2 -2 -2 -2 -1 -1 -4 -6 -5 -6 -9 -7 -1 -2 -4 -5 -6 -5 -5 -3

GFSGL_sfc_temp_123.txt.gz
Temp
43 43 43 43 44 45 46 49 51 54 57 62 62 62 62 61 61 60 60 59 58 58 58 58 58 58 57 57 57 57 55 56 53 53 56 55 55 57 53 53 52 51 48
41 41 42 43 44 44 45 47 51 54 57 62 63 62 63 62 61 60 59 58 58 57 57 56 57 57 57 57 57 56 56 55 54 52 53 54 54 54 52 51 50 49 48
40 40 41 41 42 42 43 46 50 51 59 62 63 62 62 61 60 60 59 58 58 58 57 57 56 56 56 56 56 56 56 56 54 53 52 53 53 50 46 45 44 43 44
39 38 39 40 40 41 43 45 49 52 59 61 62 62 61 61 60 59 58 58 57 57 57 57 57 56 56 56 56 55 55 54 54 53 52 52 52 51 49 44 41 41 40
37 37 38 40 40 41 43 45 47 51 58 61 61 61 61 60 59 58 58 57 56 56 56 56 57 55 51 53 56 55 54 54 53 52 52 50 51 49 48 47 42 38 37
36 36 38 38 39 39 41 43 46 48 57 60 60 60 58 58 47 47 54 56 56 55 55 55 56 50 49 45 47 47 52 54 53 52 52 52 52 52 49 47 39 37 37
35 36 36 36 37 38 40 42 44 46 56 59 59 59 58 58 45 46 46 57 56 55 55 54 54 53 50 52 42 42 39 40 43 54 52 52 50 52 51 45 42 40 38
33 33 34 34 34 36 38 40 42 44 52 58 58 58 57 56 44 44 44 55 55 54 54 54 53 52 51 46 41 37 35 35 37 42 51 44 45 49 52 49 42 33 33
31 31 31 32 33 34 36 36 39 42 46 57 58 56 55 50 42 42 47 53 52 50 49 49 52 50 40 41 38 34 32 32 35 36 36 35 35 36 40 42 36 36 31
30 29 31 31 32 33 33 35 37 40 49 45 40 44 44 46 41 42 48 49 43 39 37 37 36 45 37 38 38 36 33 30 31 32 31 31 32 33 33 34 40 38 29
30 29 29 31 31 33 33 35 35 36 37 36 34 34 35 38 41 42 43 46 40 36 34 33 34 36 37 38 38 37 34 31 29 29 28 28 28 28 28 29 31 34 32
30 27 28 29 31 32 32 32 33 33 33 33 33 32 32 33 37 39 40 38 37 35 32 32 34 35 35 34 33 32 31 30 29 28 27 25 24 24 25 27 29 29 31
27 26 26 27 30 30 30 30 31 31 31 30 31 31 30 31 32 34 34 34 33 32 32 33 33 33 32 31 31 31 30 29 28 25 23 22 23 24 26 27 27 27 27
26 25 26 26 27 29 29 30 29 29 29 29 29 29 28 29 28 29 30 31 31 29 28 27 27 28 28 27 27 27 27 27 26 24 23 23 25 24 24 25 24 25 24
28 26 26 26 26 27 28 27 28 29 30 29 29 29 29 28 29 31 30 28 28 28 29 28 27 26 25 25 25 26 26 26 25 24 24 23 23 24 24 25 25 25 23
28 26 26 26 26 26 26 26 29 29 30 31 31 29 29 31 31 31 31 31 30 30 27 25 24 24 24 24 24 24 25 25 24 24 24 24 23 22 22 24 24 23 20
26 26 25 25 25 24 24 24 22 25 27 28 29 29 30 29 30 29 29 29 28 27 23 23 22 23 22 23 22 22 22 24 25 24 23 23 23 22 22 22 21 20 19
27 24 22 23 23 23 22 22 22 20 20 20 24 26 28 28 28 28 27 26 22 23 22 20 20 21 21 21 21 21 21 22 22 21 21 20 20 21 20 19 19 18 18
25 23 22 22 22 22 22 22 21 20 18 18 19 21 22 25 25 25 25 21 20 20 20 20 20 20 19 19 18 18 18 17 18 17 17 18 17 18 16 17 17 16 18
22 23 22 22 21 21 21 20 19 18 17 15 15 15 18 19 16 16 17 18 18 18 18 18 18 18 18 18 18 18 17 17 16 15 12 12 13 15 14 14 15 15 15
21 22 21 22 21 20 20 19 18 17 16 15 13 15 15 14 13 13 13 12 14 14 14 14 13 14 15 15 15 14 13 13 14 14 13 13 12 12 14 13 12 13 13
20 20 21 20 20 18 18 17 16 15 14 14 13 13 13 12 11 11 10 10 10 11 12 11 9 9 9 9 11 11 9 9 10 11 11 11 12 11 12 11 9 9 11
20 18 18 18 18 16 15 15 13 12 11 10 11 10 10 9 9 8 7 7 7 7 8 8 7 6 6 6 6 7 7 5 6 8 9 9 10 8 6 6 6 5 2
19 17 18 16 14 14 12 11 11 10 9 8 7 7 6 6 5 5 5 6 5 4 4 4 4 4 4 2 2 4 4 2 4 4 6 8 7 7 5 3 1 -5 -5
17 16 14 12 11 10 9 9 9 8 7 6 6 5 6 6 4 2 3 4 3 2 1 1 2 1 -1 -1 -1 -0 -2 -3 -2 -1 2 3 1 -0 -1 -2 -6 -3 -6
16 15 14 13 11 10 8 7 5 7 6 4 3 3 4 4 3 1 3 2 2 0 -1 -1 -1 -1 -1 -0 -0 -3 -5 -5 -6 -8 -6 0 -1 -3 -3 -5 -5 -6 -5

GFSGL_sfc_temp_126.txt.gz
Temp
41 41 42 42 43 44 44 45 46 48 50 53 55 61 62 63 63 62 61 61 60 60 59 59 59 59 58 58 58 58 57 57 54 54 55 56 57 57 56 56 54 53 51
40 41 41 43 43 42 42 44 45 46 49 52 56 57 62 62 62 61 60 60 59 58 58 58 58 57 57 58 57 56 57 57 56 52 54 54 55 57 54 52 50 50 49
39 38 39 39 39 39 40 42 44 45 47 51 55 57 61 63 61 61 61 60 60 59 59 58 57 57 56 57 57 56 56 55 56 55 53 54 51 50 46 45 45 44 45
38 38 36 36 37 39 41 41 42 45 46 50 53 59 61 62 62 61 60 60 59 59 58 58 58 57 57 57 56 56 56 55 55 54 52 54 52 49 48 44 41 41 40
37 36 36 37 38 39 39 40 41 43 46 49 52 58 61 61 61 60 60 59 58 57 57 57 57 56 51 54 56 56 55 55 54 53 52 51 50 47 46 46 42 38 37
35 35 36 36 36 37 38 39 40 42 45 48 51 58 60 60 49 48 55 58 57 57 56 56 56 50 49 45 47 47 53 54 53 53 53 52 51 49 48 45 39 37 36
34 33 34 34 34 35 37 38 39 40 42 44 48 57 59 60 46 46 46 58 57 56 56 55 55 54 50 53 44 43 43 44 44 55 53 53 52 51 49 43 42 40 38
32 32 32 32 32 34 35 36 37 39 39 42 46 55 59 58 44 45 44 57 56 56 55 55 55 53 53 50 44 39 37 37 40 44 52 49 50 52 51 49 45 33 33
30 30 30 31 31 33 33 34 36 37 38 41 46 54 57 56 43 43 45 55 54 54 54 54 55 53 43 43 42 36 34 32 36 37 37 37 37 40 44 43 38 38 32
30 29 30 31 31 31 32 33 35 36 37 39 39 40 48 54 41 42 48 53 47 42 40 40 42 48 38 39 41 38 35 32 32 33 33 33 34 34 33 38 43 41 33
28 28 28 30 30 31 32 33 34 33 35 35 34 34 34 36 43 41 44 50 44 39 37 34 34 37 38 38 39 39 36 33 31 32 31 30 30 30 31 32 33 39 34
26 25 27 28 30 30 30 30 32 32 32 32 32 33 33 33 35 39 42 41 39 38 34 33 34 36 36 35 34 33 33 32 32 30 28 26 26 26 27 28 30 31 32
25 24 24 27 28 28 27 28 28 30 30 30 30 30 30 32 32 34 35 35 34 33 33 33 34 33 32 32 32 32 32 31 30 27 23 22 24 26 28 28 28 29 27
26 25 24 25 26 27 27 26 26 27 27 27 27 28 29 30 30 30 31 31 31 29 28 28 28 28 28 28 28 28 29 29 27 24 23 24 26 26 26 28 26 26 25
27 25 24 24 23 24 25 25 24 25 27 26 26 27 27 27 30 31 30 30 29 29 29 28 27 27 26 25 26 26 27 27 25 25 24 24 24 24 24 25 25 25 23
26 25 24 23 23 23 23 23 28 27 27 28 29 28 28 30 30 31 31 31 30 29 27 25 24 24 24 24 24 24 25 25 25 25 25 24 23 23 23 23 24 23 21
24 22 21 22 21 21 21 21 19 23 26 26 26 28 28 28 29 29 28 28 28 27 23 22 22 22 22 23 23 23 22 24 25 24 23 23 23 23 22 21 21 22 21
23 22 19 19 19 20 20 20 19 18 17 17 22 23 25 26 27 27 27 25 21 21 21 20 19 20 20 21 21 21 21 22 22 22 22 22 22 22 21 20 20 20 21
22 22 21 20 20 20 20 19 18 17 16 15 17 18 19 23 23 23 23 19 18 18 19 18 19 19 19 19 19 19 19 19 19 19 19 19 20 21 19 20 19 19 20
22 22 22 21 20 19 19 18 17 16 15 14 13 13 16 17 14 14 14 16 16 16 17 17 17 17 18 18 18 19 18 18 18 17 16 17 18 19 18 18 18 18 18
20 21 20 20 19 18 17 16 16 15 14 13 12 12 14 13 11 11 11 11 12 12 13 13 13 14 16 16 17 17 16 16 16 16 16 16 17 15 16 17 16 17 17
19 20 19 18 17 16 15 15 13 12 12 12 11 12 12 11 10 9 9 8 9 10 11 10 9 9 9 10 13 14 13 13 14 15 14 15 15 15 15 14 14 14 14
17 15 16 15 15 12 12 12 10 10 9 8 9 9 8 7 7 7 6 6 6 6 7 8 7 7 7 7 8 9 9 8 10 13 13 13 13 12 12 11 11 10 10
16 13 14 12 10 10 8 7 8 7 7 6 6 6 6 5 4 4 4 4 4 3 4 4 3 3 5 4 5 6 7 7 9 10 12 11 11 11 10 9 8 5 5
13 12 12 10 7 3 3 4 3 2 3 2 3 3 4 4 4 2 3 3 2 1 2 2 2 2 1 0 0 1 -0 -1 3 5 9 9 7 7 6 6 5 6 3
11 10 10 9 7 5 4 3 2 1 -1 -0 -0 -1 0 3 3 2 3 2 2 1 0 0 -0 -1 -0 0 2 -1 -3 -2 -2 -1 4 6 5 4 4 3 3 4 3

GFSGL_sfc_temp_129.txt.gz
Temp
45 45 46 46 47 48 48 48 49 52 54 55 56 58 60 64 64 63 63 63 62 63 64 64 62 65 63 60 61 62 61 60 57 63 62 64 59 58 56 59 57 58 55
44 44 44 44 46 45 46 47 49 49 52 53 54 55 59 61 65 63 62 62 61 61 63 62 61 62 61 60 59 59 59 60 58 56 58 59 58 59 57 55 53 52 52
42 42 42 42 41 43 44 46 47 48 49 51 53 54 56 60 62 64 62 61 61 62 62 61 61 60 59 58 58 58 58 59 59 57 54 58 52 53 47 47 47 45 46
39 40 40 40 41 42 43 43 44 46 47 49 52 53 55 56 60 63 65 61 61 62 61 61 62 60 60 58 58 58 58 58 57 56 55 54 53 50 51 46 42 42 41
38 37 38 39 40 40 40 42 42 43 45 48 50 52 55 56 58 61 63 61 61 62 60 60 62 59 53 56 58 58 58 57 55 54 53 52 50 47 48 46 43 39 38
36 36 37 38 38 39 40 40 42 42 43 44 47 50 52 56 51 47 55 60 60 61 59 58 59 51 51 47 47 48 56 58 55 55 54 52 51 51 48 46 39 38 37
36 36 35 36 37 37 38 39 39 39 40 41 43 46 49 52 48 47 46 61 60 60 60 57 56 56 52 54 45 44 46 45 46 57 55 55 53 53 49 43 43 43 39
34 34 34 34 35 35 36 37 37 38 38 39 41 44 45 49 46 45 44 59 59 60 59 57 56 56 55 55 53 47 44 42 44 47 58 59 58 54 51 50 47 35 35
32 31 32 33 33 34 33 35 36 36 37 38 40 40 40 44 45 44 44 55 57 57 57 57 57 57 47 46 49 41 35 33 37 38 39 39 42 45 46 43 39 40 33
29 30 32 33 32 31 32 33 36 36 36 37 37 37 36 36 37 37 45 55 54 52 49 53 44 52 40 41 47 42 38 35 34 34 35 35 36 35 35 45 44 43 33
29 29 30 32 31 32 32 33 34 34 33 33 34 35 34 34 35 35 39 52 51 44 44 43 40 41 40 40 42 42 40 34 33 34 33 32 33 33 33 34 34 43 38
29 28 28 29 30 31 30 30 32 33 31 29 30 32 33 33 34 34 36 38 43 43 38 35 35 37 37 36 35 35 34 34 33 33 32 29 29 28 29 30 32 32 33
29 27 27 28 29 29 29 27 29 30 30 28 28 28 29 31 32 33 33 34 34 34 34 34 35 34 33 32 33 33 33 34 33 31 28 25 26 28 29 29 30 30 29
28 27 28 28 28 28 30 29 28 27 27 28 28 26 27 28 30 31 31 31 32 32 31 31 30 30 31 30 31 30 30 31 29 27 25 26 28 28 28 29 29 28 26
29 28 28 29 27 27 28 27 27 27 26 26 26 28 26 26 27 30 31 30 29 29 31 31 29 29 28 27 27 27 28 28 26 26 26 25 25 26 25 27 28 27 25
28 28 28 28 28 28 27 27 29 27 27 27 27 27 28 28 29 29 29 30 30 29 26 25 24 25 25 25 24 24 26 26 26 26 26 26 24 24 24 25 26 25 23
25 26 26 26 26 25 24 24 22 26 27 25 26 26 26 26 27 28 28 26 26 26 22 22 21 22 22 23 23 23 23 24 26 25 24 24 24 24 24 23 24 24 23
26 24 25 25 24 24 24 23 22 21 20 21 24 23 24 25 25 25 25 25 21 22 20 20 19 20 20 20 21 22 22 23 23 24 23 24 24 23 23 23 24 24 24
25 26 25 25 24 24 24 24 23 22 20 19 20 20 20 22 22 22 22 18 18 18 19 19 20 20 20 21 21 20 20 21 22 23 24 24 24 24 23 24 24 24 26
25 23 23 24 24 23 23 22 22 21 20 18 16 16 18 18 15 14 14 15 15 15 16 16 17 19 20 21 21 22 21 22 22 22 22 23 24 24 23 24 24 23 23
24 24 22 23 22 22 21 20 20 20 19 18 16 14 14 15 13 12 12 11 12 13 13 13 14 15 17 19 21 21 20 20 21 22 22 23 23 22 23 24 24 24 25
23 23 22 20 20 19 19 19 18 18 17 16 16 15 13 14 13 12 10 10 11 11 13 13 12 12 13 13 17 18 18 19 20 20 20 21 21 21 21 21 22 22 22
22 21 20 20 19 17 16 17 16 16 15 15 15 14 13 12 11 11 10 9 9 9 10 11 11 11 12 12 13 14 15 15 18 20 20 20 20 20 20 19 19 19 19
21 19 19 18 16 17 15 14 15 13 13 13 13 12 11 10 10 9 9 9 9 8 8 8 8 8 9 11 11 13 14 15 18 19 20 20 19 19 19 18 17 17 16
19 18 17 16 15 15 14 14 13 13 12 12 12 12 12 11 10 10 9 8 8 7 7 6 7 7 7 7 6 7 7 8 13 16 18 18 17 17 17 17 17 16 15
16 16 16 16 15 15 14 13 12 12 11 11 11 11 11 11 10 10 9 8 8 6 6 6 6 5 6 7 7 4 4 6 9 11 17 17 16 15 15 14 14 15 14